Showing default

IOD2_STARTICAL, 64538

Orbit data source: Space-Track

IOD2_STARTICAL, 64538 is a Spanish payload satellite in SSO that was launched on Mon, 23 Jun 2025 UTC via an FALCON 9 launch vehicle from the Air Force Western Test Range (AFWTR). Payload-class satellites include a variety of spacecraft equipped with specific instruments for various scientific and technological missions. These include communications satellites like Starlink; space stations such as the ISS; scientific satellites like the Hubble; Earth observation satellites from companies like Planet Labs, Umbra, and HawkEye 360; GPS; miniature CubeSats for education and research; and military/defense satellites.

Loading next visibility...
Identifier
64538, 2025-135L
Orbit
SSO
Country
Flag of ESES / SPN
Related business
Manufacturer
NanoAvionics
Mission
Operational Commercial Communications
Bus & Motor
MP42, Unknown motor
Mass
~100 kg wet, ~100 kg dry
Launch date (UTC)
2025-06-23 (1 year ago)
Launch vehicle
FALCON 9
Launch site
Air Force Western Test Range (AFWTR)
Object type
Payload
Rocket body
Debris
Shape & HBR
Box + 2 Pan, 0.5 m
Radar Cross Section
0.146 m², Large (>1 m²)

Expand to show TLE details & history
Last TLE update: 14 hours ago

TLE from 14 hours ago
0 IOD2_STARTICAL
1 64538U 25135L   26171.27565516  .00003271  00000-0  15333-3 0  9997
2 64538  97.4708 285.8502 0005346 151.2480 208.9051 15.20389780 55291
Epoch: 2026-06-20T06:36Z
TLE epoch observation values (Epoch: 2026-06-20T06:36:56.605Z)
Latitude
-0.00002°
Longitude
-81.87826°
Altitude
510.975 km
Speed
7.607 km/s
True Right ascension
19h 03m 24s
True Declination
0° 00' 00"
Sunlit
Object was in full shadow at epoch
Visualization orbit readout
Latitude
Unknown
Longitude
Unknown
Altitude
Unknown
Speed
Unknown
Apparent Right ascension
Unknown
Apparent Declination
Unknown
Sunlit
N/A
Visualization observer readout
Local Sidereal Time
07:24:39
Azimuth
Unknown
Elevation
Unknown
Doppler factor
Unknown
Orbital elements
Apogee altitude
505.31 km
Perigee altitude
497.954 km
Semi-major axis
6,879.769 km
Eccentricity
0.00053
Inclination
97.4708°
RAAN
285.8502°
Arg. of periapsis
151.248°
True anomaly
208.87551°
Mean anomaly
208.9051°
Eccentric anomaly
208.8903°
Mean motion
3.80349 °/min
Orbital period
94.65 mins
BSTAR
0.00015333
Loading maneuver chart data...
Computing Atmospheric mass density...
Loading historical data...
Loading historical data...
Loading historical data...
Loading historical data...
Loading historical data...
Loading historical data...
Loading historical data...

Documentation

Showing up to 5 results
|